(°C)
(°C)
-0°
-0°
-0°
O
SO
S
SSE
SSE
SSE
SSE
(km/h)
4-10
2-6
2-6
2-3
3-4
4-7
4-12
(mm)
0
0
0
0
0
0
0
(%)
0
0
0
0
0
7
14

Elevação do sol

/ -12.2°
sun-icon
UV 1
03:21
19:57
Minguante gibosa (240°)
00:33
06:37

METAR para 55.61°N 49.28°L (UWKD)

Hora Condições Temperatura/
Ponto de condensação
Vento Visibilidade Tempo Nuvens Pressão Mudança Bruto
VFR 3°C / 2°C 260º 6kt >10km - Clouds and Visibility OK 1009 No Significant change. Runway 29: Wet or puddles, with <1mm, friction coefficient 0.60. UWKD 192130Z 26003MPS CAVOK 03/02 Q1009 R29/2/0060 NOSIG RMK QFE745/0994
VFR 4°C / 2°C 280º 4kt >10km - Clouds and Visibility OK 1008 No Significant change. Runway 29: Wet or puddles, with <1mm, friction coefficient 0.60. UWKD 192100Z 28002MPS CAVOK 04/02 Q1008 R29/2/0060 NOSIG RMK QFE745/0994
VFR 4°C / 2°C variable 2kt >10km - Clouds and Visibility OK 1009 No Significant change. Runway 29: Wet or puddles, with <1mm, friction coefficient 0.60. UWKD 192030Z VRB01MPS CAVOK 04/02 Q1009 R29/2/0060 NOSIG RMK QFE745/0994
VFR 5°C / 2°C variable 2kt >10km - Clouds and Visibility OK 1008 No Significant change. Runway 29: Wet or puddles, with <1mm, friction coefficient 0.60. UWKD 192000Z VRB01MPS CAVOK 05/02 Q1008 R29/2/0060 NOSIG RMK QFE745/0994
VFR 5°C / 2°C 260º 4kt >10km - Clouds and Visibility OK 1008 No Significant change. Runway 29: Wet or puddles, with <1mm, friction coefficient 0.60. UWKD 191930Z 26002MPS CAVOK 05/02 Q1008 R29/2/0060 NOSIG RMK QFE745/0994
VFR 5°C / 2°C 260º 4kt >10km - Clouds and Visibility OK 1008 No Significant change. Runway 29: Wet or puddles, with <1mm, friction coefficient 0.60. UWKD 191900Z 26002MPS CAVOK 05/02 Q1008 R29/2/0060 NOSIG RMK QFE745/0994
VFR 6°C / 2°C 280º 10kt >10km - Clouds and Visibility OK 1008 No Significant change. Runway 29: Wet or puddles, with <1mm, friction coefficient 0.60. UWKD 191830Z 28005MPS CAVOK 06/02 Q1008 R29/2/0060 NOSIG RMK QFE745/0994
VFR 6°C / 2°C 280º 8kt >10km - Clouds and Visibility OK 1008 No Significant change. Runway 29: Wet or puddles, with <1mm, friction coefficient 0.60. UWKD 191800Z 28004MPS CAVOK 06/02 Q1008 R29/2/0060 NOSIG RMK QFE745/0994
VFR 6°C / 2°C 290º 8kt >10km - Clouds and Visibility OK 1008 No Significant change. Runway 29: Wet or puddles, with <1mm, friction coefficient 0.60. UWKD 191730Z 29004MPS CAVOK 06/02 Q1008 R29/2/0060 NOSIG RMK QFE745/0994
VFR 7°C / 3°C 290º 6kt >10km - Clouds and Visibility OK 1008 No Significant change. Runway 29: Wet or puddles, with <1mm, friction coefficient 0.60. UWKD 191700Z 29003MPS CAVOK 07/03 Q1008 R29/2/0060 NOSIG RMK QFE745/0994
VFR 7°C / 3°C 310º 4kt >10km - Clouds and Visibility OK 1008 No Significant change. Runway 29: Wet or puddles, with <1mm, friction coefficient 0.60. UWKD 191630Z 31002MPS CAVOK 07/03 Q1008 R29/2/0060 NOSIG RMK QFE745/0993
VFR 8°C / 3°C 300º 8kt >10km - Clouds and Visibility OK 1008 No Significant change. Runway 29: Wet or puddles, with <1mm, friction coefficient 0.60. UWKD 191600Z 30004MPS CAVOK 08/03 Q1008 R29/2/0060 NOSIG RMK QFE745/0993
VFR 8°C / 3°C 300º 10kt >10km - Clouds and Visibility OK 1008 No Significant change. Runway 29: Wet or puddles, with <1mm, friction coefficient 0.60. UWKD 191530Z 30005MPS CAVOK 08/03 Q1008 R29/2/0060 NOSIG RMK QFE745/0993
VFR 8°C / 4°C 320º 14kt >10km - Clouds and Visibility OK 1008 No Significant change. Runway 29: Wet or puddles, with <1mm, friction coefficient 0.60. UWKD 191500Z 32007MPS CAVOK 08/04 Q1008 R29/2/0060 NOSIG RMK QFE745/0993
VFR 8°C / 4°C 310º 14kt >10km - Scattered Clouds 2600ft 1007 No Significant change. Runway 29: Wet or puddles, with <1mm, friction coefficient 0.50. UWKD 191430Z 31007MPS 9999 SCT026 08/04 Q1007 R29/2/0050 NOSIG RMK QFE744/0993
VFR 8°C / 4°C 310º 12kt >10km - Clouds and Visibility OK 1007 No Significant change. Runway 29: Wet or puddles, with <1mm, friction coefficient 0.50. UWKD 191400Z 31006MPS CAVOK 08/04 Q1007 R29/2/0050 NOSIG RMK QFE744/0993
VFR 9°C / 4°C 310º 14kt Gust 23kt >10km - Broken Clouds 4900ft 1007 No Significant change. Runway 29: Wet or puddles, with <1mm, friction coefficient 0.50. UWKD 191330Z 31007G12MPS 9999 BKN049 09/04 Q1007 R29/2/0050 NOSIG RMK QFE744/0993
MVFR 7°C / 4°C 300º 12kt >10km - Broken Clouds 1700ft 1007 No Significant change. Runway 29: Wet or puddles, with <1mm, friction coefficient 0.50. UWKD 191300Z 30006MPS 9999 BKN017CB 07/04 Q1007 R29/2/0050 NOSIG RMK QFE744/0993
MVFR 6°C / 4°C 290º 16kt 6000m Light Showers Rain 3.00mm precipitation Vertical Visibility of 0ft. 1008 No Significant change. Runway 29: Wet or puddles, with <1mm, friction coefficient 0.50. UWKD 191230Z 29008MPS 6000 -SHRA BKN024CB 06/04 Q1008 R29/2/0050 NOSIG RMK QFE745/0993
MVFR 9°C / 4°C 300º variable 260º to 330º 8kt >10km - Broken Clouds 2100ft 1007 No Significant change. Runway 29: Wet or puddles, with <1mm, friction coefficient 0.50. UWKD 191200Z 30004MPS 260V330 9999 BKN021 09/04 Q1007 R29/2/0050 NOSIG RMK QFE744/0993
MVFR 8°C / 5°C 320º 10kt >10km - Broken Clouds 2000ft 1007 No Significant change. Runway 29: Wet or puddles, with <1mm, friction coefficient 0.50. UWKD 191130Z 32005MPS 9999 BKN020CB 08/05 Q1007 R29/2/0050 NOSIG RMK QFE744/0993
MVFR 7°C / 4°C 320º 12kt >10km - Broken Clouds 1500ft 1007 No Significant change. Runway 29: Wet or puddles, with <1mm, friction coefficient 0.50. UWKD 191100Z 32006MPS 9999 BKN015CB 07/04 Q1007 R29/2/0050 NOSIG RMK QFE744/0993
MVFR 6°C / 4°C 300º 12kt 9000m Light Showers Rain 3.00mm precipitation Vertical Visibility of 0ft. 1007 No Significant change. Runway 29: Wet or puddles, with <1mm, friction coefficient 0.50. UWKD 191030Z 30006MPS 9000 -SHRA BKN011CB 06/04 Q1007 R29/2/0050 NOSIG RMK QFE744/0993
MVFR 6°C / 4°C 300º 10kt >10km Light Showers Rain 3.00mm precipitation Vertical Visibility of 0ft. 1007 No Significant change. Runway 29: Wet or puddles, with <1mm, friction coefficient 0.50. UWKD 191000Z 30005MPS 9999 -SHRA BKN010CB 06/04 Q1007 R29/2/0050 NOSIG RMK QFE744/0993

VFR

3°C / 2°C

[Mais]
Vento 260º 6kt
Visibilidade >10km
Tempo -
Nuvens Clouds and Visibility OK
Pressão 1009
Mudança No Significant change. Runway 29: Wet or puddles, with <1mm, friction coefficient 0.60.
Bruto UWKD 192130Z 26003MPS CAVOK 03/02 Q1009 R29/2/0060 NOSIG RMK QFE745/0994

VFR

4°C / 2°C

[Mais]
Vento 280º 4kt
Visibilidade >10km
Tempo -
Nuvens Clouds and Visibility OK
Pressão 1008
Mudança No Significant change. Runway 29: Wet or puddles, with <1mm, friction coefficient 0.60.
Bruto UWKD 192100Z 28002MPS CAVOK 04/02 Q1008 R29/2/0060 NOSIG RMK QFE745/0994

VFR

4°C / 2°C

[Mais]
Vento variable 2kt
Visibilidade >10km
Tempo -
Nuvens Clouds and Visibility OK
Pressão 1009
Mudança No Significant change. Runway 29: Wet or puddles, with <1mm, friction coefficient 0.60.
Bruto UWKD 192030Z VRB01MPS CAVOK 04/02 Q1009 R29/2/0060 NOSIG RMK QFE745/0994

VFR

5°C / 2°C

[Mais]
Vento variable 2kt
Visibilidade >10km
Tempo -
Nuvens Clouds and Visibility OK
Pressão 1008
Mudança No Significant change. Runway 29: Wet or puddles, with <1mm, friction coefficient 0.60.
Bruto UWKD 192000Z VRB01MPS CAVOK 05/02 Q1008 R29/2/0060 NOSIG RMK QFE745/0994

VFR

5°C / 2°C

[Mais]
Vento 260º 4kt
Visibilidade >10km
Tempo -
Nuvens Clouds and Visibility OK
Pressão 1008
Mudança No Significant change. Runway 29: Wet or puddles, with <1mm, friction coefficient 0.60.
Bruto UWKD 191930Z 26002MPS CAVOK 05/02 Q1008 R29/2/0060 NOSIG RMK QFE745/0994

VFR

5°C / 2°C

[Mais]
Vento 260º 4kt
Visibilidade >10km
Tempo -
Nuvens Clouds and Visibility OK
Pressão 1008
Mudança No Significant change. Runway 29: Wet or puddles, with <1mm, friction coefficient 0.60.
Bruto UWKD 191900Z 26002MPS CAVOK 05/02 Q1008 R29/2/0060 NOSIG RMK QFE745/0994

VFR

6°C / 2°C

[Mais]
Vento 280º 10kt
Visibilidade >10km
Tempo -
Nuvens Clouds and Visibility OK
Pressão 1008
Mudança No Significant change. Runway 29: Wet or puddles, with <1mm, friction coefficient 0.60.
Bruto UWKD 191830Z 28005MPS CAVOK 06/02 Q1008 R29/2/0060 NOSIG RMK QFE745/0994

VFR

6°C / 2°C

[Mais]
Vento 280º 8kt
Visibilidade >10km
Tempo -
Nuvens Clouds and Visibility OK
Pressão 1008
Mudança No Significant change. Runway 29: Wet or puddles, with <1mm, friction coefficient 0.60.
Bruto UWKD 191800Z 28004MPS CAVOK 06/02 Q1008 R29/2/0060 NOSIG RMK QFE745/0994

VFR

6°C / 2°C

[Mais]
Vento 290º 8kt
Visibilidade >10km
Tempo -
Nuvens Clouds and Visibility OK
Pressão 1008
Mudança No Significant change. Runway 29: Wet or puddles, with <1mm, friction coefficient 0.60.
Bruto UWKD 191730Z 29004MPS CAVOK 06/02 Q1008 R29/2/0060 NOSIG RMK QFE745/0994

VFR

7°C / 3°C

[Mais]
Vento 290º 6kt
Visibilidade >10km
Tempo -
Nuvens Clouds and Visibility OK
Pressão 1008
Mudança No Significant change. Runway 29: Wet or puddles, with <1mm, friction coefficient 0.60.
Bruto UWKD 191700Z 29003MPS CAVOK 07/03 Q1008 R29/2/0060 NOSIG RMK QFE745/0994

VFR

7°C / 3°C

[Mais]
Vento 310º 4kt
Visibilidade >10km
Tempo -
Nuvens Clouds and Visibility OK
Pressão 1008
Mudança No Significant change. Runway 29: Wet or puddles, with <1mm, friction coefficient 0.60.
Bruto UWKD 191630Z 31002MPS CAVOK 07/03 Q1008 R29/2/0060 NOSIG RMK QFE745/0993

VFR

8°C / 3°C

[Mais]
Vento 300º 8kt
Visibilidade >10km
Tempo -
Nuvens Clouds and Visibility OK
Pressão 1008
Mudança No Significant change. Runway 29: Wet or puddles, with <1mm, friction coefficient 0.60.
Bruto UWKD 191600Z 30004MPS CAVOK 08/03 Q1008 R29/2/0060 NOSIG RMK QFE745/0993

VFR

8°C / 3°C

[Mais]
Vento 300º 10kt
Visibilidade >10km
Tempo -
Nuvens Clouds and Visibility OK
Pressão 1008
Mudança No Significant change. Runway 29: Wet or puddles, with <1mm, friction coefficient 0.60.
Bruto UWKD 191530Z 30005MPS CAVOK 08/03 Q1008 R29/2/0060 NOSIG RMK QFE745/0993

VFR

8°C / 4°C

[Mais]
Vento 320º 14kt
Visibilidade >10km
Tempo -
Nuvens Clouds and Visibility OK
Pressão 1008
Mudança No Significant change. Runway 29: Wet or puddles, with <1mm, friction coefficient 0.60.
Bruto UWKD 191500Z 32007MPS CAVOK 08/04 Q1008 R29/2/0060 NOSIG RMK QFE745/0993

VFR

8°C / 4°C

[Mais]
Vento 310º 14kt
Visibilidade >10km
Tempo -
Nuvens Scattered Clouds 2600ft
Pressão 1007
Mudança No Significant change. Runway 29: Wet or puddles, with <1mm, friction coefficient 0.50.
Bruto UWKD 191430Z 31007MPS 9999 SCT026 08/04 Q1007 R29/2/0050 NOSIG RMK QFE744/0993

VFR

8°C / 4°C

[Mais]
Vento 310º 12kt
Visibilidade >10km
Tempo -
Nuvens Clouds and Visibility OK
Pressão 1007
Mudança No Significant change. Runway 29: Wet or puddles, with <1mm, friction coefficient 0.50.
Bruto UWKD 191400Z 31006MPS CAVOK 08/04 Q1007 R29/2/0050 NOSIG RMK QFE744/0993

VFR

9°C / 4°C

[Mais]
Vento 310º 14kt Gust 23kt
Visibilidade >10km
Tempo -
Nuvens Broken Clouds 4900ft
Pressão 1007
Mudança No Significant change. Runway 29: Wet or puddles, with <1mm, friction coefficient 0.50.
Bruto UWKD 191330Z 31007G12MPS 9999 BKN049 09/04 Q1007 R29/2/0050 NOSIG RMK QFE744/0993

MVFR

7°C / 4°C

[Mais]
Vento 300º 12kt
Visibilidade >10km
Tempo -
Nuvens Broken Clouds 1700ft
Pressão 1007
Mudança No Significant change. Runway 29: Wet or puddles, with <1mm, friction coefficient 0.50.
Bruto UWKD 191300Z 30006MPS 9999 BKN017CB 07/04 Q1007 R29/2/0050 NOSIG RMK QFE744/0993

MVFR

6°C / 4°C

[Mais]
Vento 290º 16kt
Visibilidade 6000m
Tempo Light Showers Rain 3.00mm precipitation
Nuvens Vertical Visibility of 0ft.
Pressão 1008
Mudança No Significant change. Runway 29: Wet or puddles, with <1mm, friction coefficient 0.50.
Bruto UWKD 191230Z 29008MPS 6000 -SHRA BKN024CB 06/04 Q1008 R29/2/0050 NOSIG RMK QFE745/0993

MVFR

9°C / 4°C

[Mais]
Vento 300º variable 260º to 330º 8kt
Visibilidade >10km
Tempo -
Nuvens Broken Clouds 2100ft
Pressão 1007
Mudança No Significant change. Runway 29: Wet or puddles, with <1mm, friction coefficient 0.50.
Bruto UWKD 191200Z 30004MPS 260V330 9999 BKN021 09/04 Q1007 R29/2/0050 NOSIG RMK QFE744/0993

MVFR

8°C / 5°C

[Mais]
Vento 320º 10kt
Visibilidade >10km
Tempo -
Nuvens Broken Clouds 2000ft
Pressão 1007
Mudança No Significant change. Runway 29: Wet or puddles, with <1mm, friction coefficient 0.50.
Bruto UWKD 191130Z 32005MPS 9999 BKN020CB 08/05 Q1007 R29/2/0050 NOSIG RMK QFE744/0993

MVFR

7°C / 4°C

[Mais]
Vento 320º 12kt
Visibilidade >10km
Tempo -
Nuvens Broken Clouds 1500ft
Pressão 1007
Mudança No Significant change. Runway 29: Wet or puddles, with <1mm, friction coefficient 0.50.
Bruto UWKD 191100Z 32006MPS 9999 BKN015CB 07/04 Q1007 R29/2/0050 NOSIG RMK QFE744/0993

MVFR

6°C / 4°C

[Mais]
Vento 300º 12kt
Visibilidade 9000m
Tempo Light Showers Rain 3.00mm precipitation
Nuvens Vertical Visibility of 0ft.
Pressão 1007
Mudança No Significant change. Runway 29: Wet or puddles, with <1mm, friction coefficient 0.50.
Bruto UWKD 191030Z 30006MPS 9000 -SHRA BKN011CB 06/04 Q1007 R29/2/0050 NOSIG RMK QFE744/0993

MVFR

6°C / 4°C

[Mais]
Vento 300º 10kt
Visibilidade >10km
Tempo Light Showers Rain 3.00mm precipitation
Nuvens Vertical Visibility of 0ft.
Pressão 1007
Mudança No Significant change. Runway 29: Wet or puddles, with <1mm, friction coefficient 0.50.
Bruto UWKD 191000Z 30005MPS 9999 -SHRA BKN010CB 06/04 Q1007 R29/2/0050 NOSIG RMK QFE744/0993

TAF para 55.61°N 49.28°L (UWKD)

From till


Maximum Temperature 8ºC on . Minimum Temperature 3ºC on .
From till Wind 270º 6kt. Visibility 10km or more. Scattered Clouds 2000ft.
Becoming from till Wind 330º 10kt. Gust 23kt. Visibility 10km or more. Broken Clouds 1600ft.
Temporarly from till Visibility 3100m. Light Showers Rain . Broken Clouds 1100ft. Broken Clouds 2000ft.

Bruto: TAF UWKD 191958Z 1921/2021 27003MPS 9999 SCT020 TX08/2011Z TN03/2003Z BECMG 2006/2008 33005G12MPS BKN016 TEMPO 2009/2015 3100 -SHRA BKN011 BKN020CB

Radar e precipitação nowcast para 55.61°N 49.28°L

Chuvisco
Leve
Moderado
Forte
Muito forte
Granizo

O marcador do lugar é colocado em 55.61°N 49.28°L. Esta animação mostra o radar de precipitação para a última hora, assim como a 1h previsão. A queda de neve pode ser invisível para o radar. A intensidade da precipitação é codificada por cores, variando do azul claro ao laranja.

Imagens atuais de satélite e precipitação para 55.61°N 49.28°L

O marcador de lugar é colocado em 55.61°N 49.28°L. [Mais]

A imagem de satélite em tempo real combina luz visível durante o dia com radiação infravermelha durante a noite. À noite, a imagem não é escura, pois a radiação infravermelha pode detectar diferenças de temperatura. Infelizmente, nuvens baixas e neblina são difíceis de distinguir das temperaturas do solo e, portanto, podem ser quase invisíveis durante a noite. As imagens de satélite Meteosat para a Europa são atualizadas em tempo real a cada 5 minutos. GOES-16/GOES-17 ( América do Norte e do Sul) e Himawari (Ásia) são atualizadas a cada 10 minutos.

Copyright 2022 EUMETSAT / meteoblue. / Copyright 2022 meteoblue

Voltar ao início